Location: ??????????
(54.8537°N, 38.8755°E)
Time: 14:35:36
(UTC+00:00)

Tiros 1 despin weight - Visible Passes

Search period start: 13 September 2024 00:00
Search period end: 23 September 2024 00:00
Orbit: 573 x 617 km, 48.2° (Epoch: 12 September)

Date Brightness Start Highest point End Pass type
(mag) Time Alt. Az. Time Alt. Az. Time Alt. Az.
13 Sep ? 01:57:28 10° SSW 02:00:52 21° SSE 02:04:16 10° ESE visible
14 Sep ? 00:28:53 10° SSE 00:29:40 10° SE 00:30:28 10° SE visible
14 Sep ? 02:05:51 10° SW 02:09:38 26° SSE 02:13:25 10° ESE visible
15 Sep ? 00:37:04 14° SSE 00:38:16 15° SSE 00:40:51 10° ESE visible
15 Sep ? 02:14:24 10° SW 02:18:24 31° SSE 02:22:25 10° ESE visible
16 Sep ? 00:45:42 18° S 00:46:54 20° SSE 00:50:12 10° ESE visible
17 Sep ? 00:54:16 22° S 00:55:32 25° SSE 00:59:16 10° ESE visible
17 Sep ? 23:26:13 11° ESE 23:26:13 11° ESE 23:26:29 10° ESE visible
18 Sep ? 01:02:47 25° SSW 01:04:11 30° SSE 01:08:10 10° ESE visible
18 Sep ? 23:34:41 14° ESE 23:34:41 14° ESE 23:35:48 10° ESE visible
19 Sep ? 01:11:15 26° SSW 01:12:49 34° S 01:16:56 10° ESE visible
19 Sep ? 23:43:07 18° ESE 23:43:07 18° ESE 23:44:46 10° ESE visible
20 Sep ? 01:19:40 26° SW 01:21:26 36° S 01:25:36 10° ESE visible
20 Sep ? 23:51:32 21° SE 23:51:32 21° SE 23:53:33 10° ESE visible
21 Sep ? 01:28:06 24° SW 01:30:02 35° S 01:34:11 10° ESE visible
21 Sep ? 23:59:58 24° SE 23:59:58 24° SE 00:02:12 10° ESE visible
22 Sep ? 01:36:31 22° SW 01:38:34 33° S 01:42:38 10° SE visible
